Weather History for Wheeling, WV

Change the Weather History Date:

Thursday, May 9, 2013

  Actual Average Record
Temperature  
Mean Temperature 66 °F 58 °F  
Max Temperature 77 °F 68 °F 83 °F (2004)
Min Temperature 55 °F 48 °F 42 °F (2005)
Degree Days  
Heating Degree Days 0 7  
Month to date heating degree days 21 75  
Since 1 July heating degree days 5307 5433  
Cooling Degree Days 1    
Month to date cooling degree days 1  
Year to date cooling degree days 21  
Growing Degree Days 15 (Base 50)    
Moisture  
Dew Point 52 °F    
Average Humidity 62    
Maximum Humidity 93    
Minimum Humidity 31    
Precipitation  
Precipitation T in 0.13 in 0.97 in (2003)
Month to date precipitation 0.16 1.12  
Sea Level Pressure  
Sea Level Pressure 29.97 in    
Wind  
Wind Speed 6 mph (West)    
Max Wind Speed 16 mph    
Max Gust Speed 23 mph    
Visibility 10 miles    
Events      
T = Trace of Precipitation, MM = Missing Value Source: NWS Daily Summary

Daily Weather History Graph

Daily Weather History Graph

Search for Another Location

Airport:

Trip Planner

Search our weather history database for the weather conditions in past years. The results will help you decide how hot, cold, wet, or windy it might be!

Date:

Astronomy

May. 09, 2013 Rise Set
Actual Time 6:12 AM EDT 8:25 PM EDT
Civil Twilight 5:42 AM EDT 8:56 PM EDT
Nautical Twilight 5:05 AM EDT 9:33 PM EDT
Astronomical Twilight 4:24 AM EDT 10:14 PM EDT
Moon 5:56 AM EDT (5/9) 8:19 PM EDT (5/9)
Length of Visible Light 15h 13m
Length of Day
14h 13m
Waning Crescent, 0% of the Moon is Illuminated
May 9
Waning Crescent
May 9
New
May 18
First Quarter
May 25
Full
May 31
Last Quarter

Hourly Weather History & Observations

Time (EDT) Temp. Dew Point Humidity Pressure Visibility Wind Dir Wind Speed Gust Speed Precip Events Conditions
12:53 AM 59.0 °F 52.0 °F 78% 29.96 in 10.0 mi NW 3.5 mph - N/A   Overcast
1:53 AM 57.0 °F 54.0 °F 89% 29.94 in 10.0 mi WNW 6.9 mph - 0.00 in   Overcast
2:53 AM 57.0 °F 54.0 °F 89% 29.93 in 10.0 mi West 3.5 mph - 0.00 in   Overcast
3:53 AM 55.9 °F 54.0 °F 93% 29.93 in 10.0 mi WSW 3.5 mph - N/A   Overcast
4:53 AM 57.0 °F 54.0 °F 89% 29.93 in 10.0 mi WNW 4.6 mph - N/A   Overcast
5:53 AM 55.0 °F 54.0 °F 96% 29.94 in 7.0 mi West 4.6 mph - 0.00 in   Overcast
6:53 AM 55.9 °F 54.0 °F 93% 29.97 in 9.0 mi West 5.8 mph - N/A   Overcast
7:53 AM 57.0 °F 55.0 °F 93% 29.99 in 10.0 mi West 4.6 mph - N/A   Overcast
8:53 AM 57.9 °F 55.0 °F 90% 30.01 in 10.0 mi West 4.6 mph - N/A   Overcast
9:53 AM 61.0 °F 55.9 °F 83% 30.01 in 10.0 mi WSW 3.5 mph - N/A   Mostly Cloudy
10:53 AM 66.0 °F 55.0 °F 68% 30.00 in 10.0 mi WNW 4.6 mph - N/A   Mostly Cloudy
11:53 AM 66.9 °F 54.0 °F 63% 30.01 in 10.0 mi SW 8.1 mph - N/A   Overcast
1:53 PM 73.9 °F 50.0 °F 43% 29.99 in 10.0 mi West 9.2 mph - N/A   Partly Cloudy
2:53 PM 75.9 °F 45.0 °F 33% 29.98 in 10.0 mi NW 12.7 mph 20.7 mph N/A   Scattered Clouds
4:53 PM 75.0 °F 43.0 °F 32% 29.96 in 10.0 mi NW 8.1 mph - N/A   Scattered Clouds
5:29 PM 73.4 °F 48.2 °F 41% 29.97 in 10.0 mi West 11.5 mph - N/A   Partly Cloudy
5:53 PM 75.0 °F 48.9 °F 40% 29.96 in 10.0 mi West 6.9 mph - N/A   Clear
6:53 PM 72.0 °F 48.9 °F 44% 29.96 in 10.0 mi SW 8.1 mph - N/A   Clear
7:53 PM 68.0 °F 48.9 °F 50% 29.99 in 10.0 mi West 4.6 mph - N/A   Mostly Cloudy
8:53 PM 66.9 °F 48.9 °F 52% 29.99 in 10.0 mi Calm Calm - N/A   Clear
9:53 PM 64.0 °F 50.0 °F 60% 30.00 in 10.0 mi SE 3.5 mph - N/A   Mostly Cloudy
10:53 PM 64.0 °F 50.0 °F 60% 30.00 in 10.0 mi Calm Calm - N/A   Partly Cloudy
11:53 PM 62.1 °F 52.0 °F 70% 30.00 in 10.0 mi South 4.6 mph - 0.00 in   Overcast